Regional Weather Roundup
Issued by NWS

Home | Current Version | Previous Version | Graphics & Text | Print | Product List | Glossary On
Versions: 1 2 3 4 5 6 7 8 9 10 11 12 13 14 15 16 17 18 19 20 21 22 23 24 25 26 27 28 29 30 31 32 33 34 35 36 37 38 39 40 41 42 43 44 45 46 47 48 49 50
000
ASUS45 KPSR 301610
RWRAZ

ARIZONA HOURLY REGIONAL WEATHER ROUNDUP
NATIONAL WEATHER SERVICE PHOENIX AZ
900 AM MST TUE JUN 30 2015

NOTE: FAIR INDICATES FEW OR NO CLOUDS BELOW 12,000 FEET WITH NO
SIGNIFICANT WEATHER AND/OR OBSTRUCTIONS TO VISIBILITY.

AZZ001>003-036-301700-
NORTHWEST ARIZONA

CITY           SKY/WX    TMP DP  RH WIND       PRES   REMARKS
BULLHEAD CITY  SUNNY    100  55  22 SW7       29.83S
KINGMAN        MOSUNNY   90  51  26 SW8       30.05S
$$

AZZ004>008-015-016-018-301700-
NORTH CENTRAL ARIZONA

CITY           SKY/WX    TMP DP  RH WIND       PRES   REMARKS
GRAND CANYON   SUNNY     82  46  28 VRB7      30.30S
WILLIAMS       MOSUNNY   77  52  41 NE5       30.38F
PRESCOTT       MOSUNNY   81  54  39 S7        30.20R
FLAGSTAFF      PTSUNNY   74  50  42 S5        30.34R
PAYSON         SUNNY     81  54  39 S8        30.24S
PAGE           SUNNY     89  48  24 NE5       30.08S
$$

AZZ009>014-017-301700-
NORTHEAST ARIZONA

CITY           SKY/WX    TMP DP  RH WIND       PRES   REMARKS
WINSLOW        MOSUNNY   84  53  34 VRB3      30.17S
SAINT JOHNS    SUNNY     80  53  39 SE3       30.22F
WINDOW ROCK    SUNNY     78  49  35 S10       30.31F
SHOW LOW       SUNNY     77  46  33 SW13      30.30F
$$

AZZ023-301700-
GREATER PHOENIX AREA

CITY           SKY/WX    TMP DP  RH WIND       PRES   REMARKS
PHOENIX        MOSUNNY   95  62  33 NW8       29.91R
BUCKEYE        SUNNY     91  63  38 S13       29.94S
GLENDALE       MOSUNNY   95  61  31 S13G20    29.94R
DEER VALLEY    SUNNY     92  64  39 SW6       29.94R
SCOTTSDALE     SUNNY     91  63  39 SE6       29.96S
MESA-GATEWAY   MOSUNNY   91  63  38 SW12      29.97R
CHANDLER       PTSUNNY   93  63  36 S16       29.93R
$$

AZZ027-028-301700-
SOUTHWEST MARICOPA COUNTY AND PINAL COUNTY

CITY           SKY/WX    TMP DP  RH WIND       PRES   REMARKS
CASA GRANDE    MOSUNNY   93  61  33 SW20G25   29.93F
$$

AZZ503-504-507>509-301700-
SOUTHEAST ARIZONA

CITY           SKY/WX    TMP DP  RH WIND       PRES   REMARKS
TUCSON         CLOUDY    79  64  60 CALM      30.05R
DAVIS-MONTHAN  CLOUDY    78  64  61 S5        30.03S
RYAN FIELD     SUNNY     82  68  61 CALM      30.03R
NOGALES        MOSUNNY   81  62  52 N3        30.10F
SIERRA VISTA   MOSUNNY   79  56  45 VRB3      30.17F
DOUGLAS        MOSUNNY   84  54  35 E9        30.11F
SAFFORD        MOSUNNY   88  53  30 SW6       30.02F
$$

AZZ020-021-025-026-031-301700-
SOUTHWEST ARIZONA

CITY           SKY/WX    TMP DP  RH WIND       PRES   REMARKS
YUMA           PTSUNNY   93  69  45 S14       29.88R
$$

CAZ031-033-041-043-047-048-061-301700-
SOUTHERN CALIFORNIA

CITY           SKY/WX    TMP DP  RH WIND       PRES   REMARKS
DOWNTOWN L.A.  SUNNY     76  61  59 CALM      29.89S
L.A. AIRPORT   MOSUNNY   72  63  73 W6        29.91R
SAN DIEGO      PTSUNNY   73  63  70 VRB3      29.91S
BURBANK        SUNNY     78  58  49 SE3       29.91R
ONTARIO        PTSUNNY   79  60  52 S5        29.91S
RIVERSIDE      MOSUNNY   79  60  52 W3        29.91R
PALM SPRINGS   SUNNY     95  63  34 E8        29.87R
EL CENTRO NAS  MOSUNNY   91  73  55 SE17      29.85S
IMPERIAL       SUNNY     91  73  55 SE15      29.83S
BLYTHE         MOSUNNY   95  65  37 S18       29.85S
NEEDLES        SUNNY    104  56  20 E9        29.84S HX 103
$$

NVZ020-UTZ003-301700-
SOUTHERN NEVADA-UTAH

CITY           SKY/WX    TMP DP  RH WIND       PRES   REMARKS
LAS VEGAS      PTSUNNY   99  51  19 S13       29.89R
SALT LAKE CITY MOSUNNY   88  55  32 SE6       30.07S
$$

NMZ009-TXZ055-301700-
NEW MEXICO-WEST TEXAS

CITY           SKY/WX    TMP DP  RH WIND       PRES   REMARKS
ALBUQUERQUE    MOSUNNY   78  50  37 NW8       30.27S
EL PASO        MOSUNNY   82  56  40 E15       30.14S
$$


........................KEY........................
SKY/WX - SKY CONDITION/WEATHER
TMP    - TEMPERATURE IN FAHRENHEIT
DP     - DEW POINT IN FAHRENHEIT
RH     - RELATIVE HUMIDITY IN PERCENT
WIND   - DIRECTION AND SPEED IN MILES PER HOUR (MPH)
VRB    - VARIABLE WIND DIRECTION
PRES   - MEAN SEA LEVEL PRESSURE IN INCHES OF MERCURY
         F - FALLING PRESSURE   R - RISING PRESSURE
         S - STEADY PRESSURE
VSB    - VISIBILITY IN MILES
HX     - HEAT INDEX IN FAHRENHEIT
WCI    - WIND CHILL INDEX IN FAHRENHEIT
TC     - TEMPERATURE IN CELSIUS WHICH IS ALSO KNOWN AS
         TEMPERATURE IN CENTIGRADE
AFB    - AIR FORCE BASE
         LUKE AFB IS LUKE AIR FORCE BASE
         DAVIS-MONTHAN IS DAVIS-MONTHAN AIR FORCE BASE
NAS    - NAVAL AIR STATION
         EL CENTRO NAS IS EL CENTRO NAVAL AIR STATION
N/A    - NOT AVAILABLE




USA.gov is the U.S. government's official web portal to all federal, state and local government web resources and services.